Regional Weather Roundup
Issued by NWS

Home | Current Version | Previous Version | Graphics & Text | Print | Product List | Glossary On
Versions: 1 2 3 4 5 6 7 8 9 10 11 12 13 14 15 16 17 18 19 20 21 22 23 24 25 26 27 28 29 30 31 32 33 34 35 36 37 38 39 40 41 42 43 44 45 46 47 48 49 50
000
ASUS43 KLMK 210202
RWRKY
KENTUCKY REGIONAL WEATHER ROUNDUP
NATIONAL WEATHER SERVICE LOUISVILLE KY
900 PM EST MON NOV 20 2017

NOTE "FAIR" INDICATES FEW OR NO CLOUDS BELOW 12,000 FEET
WITH NO SIGNIFICANT WEATHER AND/OR OBSTRUCTIONS TO VISIBILITY.

KYZ001>023-026-027-061>063-070>075-210300-
WESTERN AND SOUTH CENTRAL KENTUCKY

CITY           SKY/WX    TMP DP  RH WIND       PRES   REMARKS
PADUCAH        CLEAR     42  24  49 CALM      30.03F
HENDERSON      CLEAR     40  26  57 S3        30.03S
OWENSBORO      CLEAR     40  26  57 SE6       30.04F
HOPKINSVILLE   CLEAR     44  22  41 S5        30.06R
BOWLING GREEN  CLEAR     36  25  64 CALM      30.07F
GLASGOW        NOT AVBL
$$

KYZ024-025-028>034-038-045-046-053-210300-
NORTH CENTRAL KENTUCKY

CITY           SKY/WX    TMP DP  RH WIND       PRES   REMARKS
LOUISVILLE/SDF CLEAR     40  25  55 SE8       30.05F WCI  34
LOUISVILLE/LOU CLEAR     42  25  50 S5        30.05F
FORT KNOX      CLEAR     40  23  50 S3        30.04F
$$

KYZ035>037-039>044-047>052-055>060-089>105-210300-
NORTHEAST KENTUCKY

CITY           SKY/WX    TMP DP  RH WIND       PRES   REMARKS
LEXINGTON      CLEAR     39  23  52 S6        30.06F WCI  35
COVINGTON      PTCLDY    39  27  62 S10       30.02F WCI  32
FRANKFORT      CLEAR     32  25  75 CALM      30.05F
$$

KYZ054-064>069-076>088-106>120-210300-
SOUTHEAST KENTUCKY

CITY           SKY/WX    TMP DP  RH WIND       PRES   REMARKS
JACKSON        CLEAR     42  22  44 SW3       30.08F
LONDON         CLEAR     37  25  61 S3        30.10S
SOMERSET       NOT AVBL
MIDDLESBORO    CLOUDY    36  28  72 CALM      30.14S
MONTICELLO     CLEAR     35  25  66 E7        30.11F WCI  29
$$





USA.gov is the U.S. government's official web portal to all federal, state and local government web resources and services.